owner,sensor,date,latitude,longitude,air_pressure(mBar),qcFlag 
TABS,ioos:station:wmo:42045:1,2014-02-01T00:00:00Z,26.2168,-96.4998,1011.22,11111222 
TABS,ioos:station:wmo:42045:1,2014-02-01T00:30:00Z,26.2168,-96.4998,1011.41,11111222 
TABS,ioos:station:wmo:42045:1,2014-02-01T01:00:00Z,26.2168,-96.4998,1011.75,11111222 
TABS,ioos:station:wmo:42045:1,2014-02-01T01:30:00Z,26.2168,-96.4998,1011.61,11111222 
TABS,ioos:station:wmo:42045:1,2014-02-01T02:00:00Z,26.2168,-96.4998,1011.89,11111222 
TABS,ioos:station:wmo:42045:1,2014-02-01T02:30:00Z,26.2168,-96.4998,1011.88,11111222 
TABS,ioos:station:wmo:42045:1,2014-02-01T03:00:00Z,26.2168,-96.4998,1011.92,11111222 
TABS,ioos:station:wmo:42045:1,2014-02-01T03:30:00Z,26.2168,-96.4998,1011.59,11111222 
TABS,ioos:station:wmo:42045:1,2014-02-01T04:00:00Z,26.2168,-96.4998,1011.98,11111222 
TABS,ioos:station:wmo:42045:1,2014-02-01T04:30:00Z,26.2168,-96.4998,1011.88,11111222 
TABS,ioos:station:wmo:42045:1,2014-02-01T05:00:00Z,26.2168,-96.4998,1012.01,11111222 
TABS,ioos:station:wmo:42045:1,2014-02-01T05:30:00Z,26.2168,-96.4998,1011.4,11111222 
TABS,ioos:station:wmo:42045:1,2014-02-01T06:00:00Z,26.2168,-96.4998,1011.67,11111222 
TABS,ioos:station:wmo:42045:1,2014-02-01T06:30:00Z,26.2168,-96.4998,1010.92,11111222 
TABS,ioos:station:wmo:42045:1,2014-02-01T07:00:00Z,26.2168,-96.4998,1010.96,11111222 
TABS,ioos:station:wmo:42045:1,2014-02-01T07:30:00Z,26.2168,-96.4998,1010.86,11111222 
TABS,ioos:station:wmo:42045:1,2014-02-01T08:00:00Z,26.2168,-96.4998,1010.65,11111222 
TABS,ioos:station:wmo:42045:1,2014-02-01T08:30:00Z,26.2168,-96.4998,1010.33,11111222 
TABS,ioos:station:wmo:42045:1,2014-02-01T09:00:00Z,26.2168,-96.4998,1009.98,11111222 
TABS,ioos:station:wmo:42045:1,2014-02-01T09:30:00Z,26.2168,-96.4998,1009.79,11111222 
TABS,ioos:station:wmo:42045:1,2014-02-01T10:00:00Z,26.2168,-96.4998,1009.74,11111222 
TABS,ioos:station:wmo:42045:1,2014-02-01T10:30:00Z,26.2168,-96.4998,1009.94,11111222 
TABS,ioos:station:wmo:42045:1,2014-02-01T11:00:00Z,26.2168,-96.4998,1009.62,11111222 
TABS,ioos:station:wmo:42045:1,2014-02-01T11:30:00Z,26.2168,-96.4998,1009.64,11111222 
TABS,ioos:station:wmo:42045:1,2014-02-01T12:00:00Z,26.2168,-96.4998,1009.72,11111222 
TABS,ioos:station:wmo:42045:1,2014-02-01T12:30:00Z,26.2168,-96.4998,1009.91,11111222 
TABS,ioos:station:wmo:42045:1,2014-02-01T13:00:00Z,26.2168,-96.4998,1009.97,11111222 
TABS,ioos:station:wmo:42045:1,2014-02-01T13:30:00Z,26.2168,-96.4998,1010.29,11111222 
TABS,ioos:station:wmo:42045:1,2014-02-01T14:00:00Z,26.2168,-96.4998,1010.15,11111222 
TABS,ioos:station:wmo:42045:1,2014-02-01T14:30:00Z,26.2168,-96.4998,1010.58,11111222 
TABS,ioos:station:wmo:42045:1,2014-02-01T15:00:00Z,26.2168,-96.4998,1010.94,11111222 
TABS,ioos:station:wmo:42045:1,2014-02-01T15:30:00Z,26.2168,-96.4998,1011.25,11111222 
TABS,ioos:station:wmo:42045:1,2014-02-01T16:00:00Z,26.2168,-96.4998,1011.07,11111222 
TABS,ioos:station:wmo:42045:1,2014-02-01T16:30:00Z,26.2168,-96.4998,1011.01,11111222 
TABS,ioos:station:wmo:42045:1,2014-02-01T17:00:00Z,26.2168,-96.4998,1010.96,11111222 
TABS,ioos:station:wmo:42045:1,2014-02-01T17:30:00Z,26.2168,-96.4998,1010.62,11111222 
TABS,ioos:station:wmo:42045:1,2014-02-01T18:00:00Z,26.2168,-96.4998,1010.37,11111222 
TABS,ioos:station:wmo:42045:1,2014-02-01T18:30:00Z,26.2168,-96.4998,1009.77,11111222 
TABS,ioos:station:wmo:42045:1,2014-02-01T19:00:00Z,26.2168,-96.4998,1009.57,11111222 
TABS,ioos:station:wmo:42045:1,2014-02-01T19:30:00Z,26.2168,-96.4998,1008.99,11111222 
TABS,ioos:station:wmo:42045:1,2014-02-01T20:00:00Z,26.2168,-96.4998,1008.66,11111222 
TABS,ioos:station:wmo:42045:1,2014-02-01T20:30:00Z,26.2168,-96.4998,1008.21,11111222 
TABS,ioos:station:wmo:42045:1,2014-02-01T21:00:00Z,26.2168,-96.4998,1008.13,11111222 
TABS,ioos:station:wmo:42045:1,2014-02-01T21:30:00Z,26.2168,-96.4998,1007.86,11111222 
TABS,ioos:station:wmo:42045:1,2014-02-01T22:00:00Z,26.2168,-96.4998,1007.93,11111222 
TABS,ioos:station:wmo:42045:1,2014-02-01T22:30:00Z,26.2168,-96.4998,1008.04,11111222 
TABS,ioos:station:wmo:42045:1,2014-02-01T23:00:00Z,26.2168,-96.4998,1007.8,11111222 
TABS,ioos:station:wmo:42045:1,2014-02-01T23:30:00Z,26.2168,-96.4998,1008.24,11111222 
TABS,ioos:station:wmo:42045:1,2014-02-02T00:00:00Z,26.2168,-96.4998,1008.21,11111222 
TABS,ioos:station:wmo:42045:1,2014-02-02T00:30:00Z,26.2168,-96.4998,1008.62,11111222 
TABS,ioos:station:wmo:42045:1,2014-02-02T01:00:00Z,26.2168,-96.4998,1008.93,11111222 
TABS,ioos:station:wmo:42045:1,2014-02-02T01:30:00Z,26.2168,-96.4998,1009.6,11111222 
TABS,ioos:station:wmo:42045:1,2014-02-02T02:00:00Z,26.2168,-96.4998,1010.01,11111222 
TABS,ioos:station:wmo:42045:1,2014-02-02T02:30:00Z,26.2168,-96.4998,1010.09,11111222 
TABS,ioos:station:wmo:42045:1,2014-02-02T03:00:00Z,26.2168,-96.4998,1010.18,11111222 
TABS,ioos:station:wmo:42045:1,2014-02-02T03:30:00Z,26.2168,-96.4998,1010.24,11111222 
TABS,ioos:station:wmo:42045:1,2014-02-02T04:00:00Z,26.2168,-96.4998,1010.01,11111222 
TABS,ioos:station:wmo:42045:1,2014-02-02T04:30:00Z,26.2168,-96.4998,1010.01,11111222 
TABS,ioos:station:wmo:42045:1,2014-02-02T05:00:00Z,26.2168,-96.4998,1009.75,11111222 
TABS,ioos:station:wmo:42045:1,2014-02-02T05:30:00Z,26.2168,-96.4998,1009.88,11111222 
TABS,ioos:station:wmo:42045:1,2014-02-02T06:00:00Z,26.2168,-96.4998,1009.62,11111222 
TABS,ioos:station:wmo:42045:1,2014-02-02T06:30:00Z,26.2168,-96.4998,1009.4,11111222 
TABS,ioos:station:wmo:42045:1,2014-02-02T07:00:00Z,26.2168,-96.4998,1009.35,11111222 
TABS,ioos:station:wmo:42045:1,2014-02-02T07:30:00Z,26.2168,-96.4998,1009.11,11111222 
TABS,ioos:station:wmo:42045:1,2014-02-02T08:00:00Z,26.2168,-96.4998,1008.91,11111222 
TABS,ioos:station:wmo:42045:1,2014-02-02T08:30:00Z,26.2168,-96.4998,1008.83,11111222 
TABS,ioos:station:wmo:42045:1,2014-02-02T09:00:00Z,26.2168,-96.4998,1008.7,11111222 
TABS,ioos:station:wmo:42045:1,2014-02-02T09:30:00Z,26.2168,-96.4998,1008.46,11111222 
TABS,ioos:station:wmo:42045:1,2014-02-02T10:00:00Z,26.2168,-96.4998,1008.27,11111222 
TABS,ioos:station:wmo:42045:1,2014-02-02T10:30:00Z,26.2168,-96.4998,1008.16,11111222 
TABS,ioos:station:wmo:42045:1,2014-02-02T11:00:00Z,26.2168,-96.4998,1008.21,11111222 
TABS,ioos:station:wmo:42045:1,2014-02-02T11:30:00Z,26.2168,-96.4998,1008.33,11111222 
TABS,ioos:station:wmo:42045:1,2014-02-02T12:00:00Z,26.2168,-96.4998,1008.77,11111222 
TABS,ioos:station:wmo:42045:1,2014-02-02T12:30:00Z,26.2168,-96.4998,1008.9,11111222 
TABS,ioos:station:wmo:42045:1,2014-02-02T13:00:00Z,26.2168,-96.4998,1008.81,11111222 
TABS,ioos:station:wmo:42045:1,2014-02-02T13:30:00Z,26.2168,-96.4998,1008.74,11111222 
TABS,ioos:station:wmo:42045:1,2014-02-02T14:00:00Z,26.2168,-96.4998,1008.83,11111222 
TABS,ioos:station:wmo:42045:1,2014-02-02T14:30:00Z,26.2168,-96.4998,1008.95,11111222 
TABS,ioos:station:wmo:42045:1,2014-02-02T15:00:00Z,26.2168,-96.4998,1009.31,11111222 
TABS,ioos:station:wmo:42045:1,2014-02-02T15:30:00Z,26.2168,-96.4998,1009.56,11111222 
TABS,ioos:station:wmo:42045:1,2014-02-02T16:00:00Z,26.2168,-96.4998,1010.1,11111222 
TABS,ioos:station:wmo:42045:1,2014-02-02T16:30:00Z,26.2168,-96.4998,1010.62,11111222 
TABS,ioos:station:wmo:42045:1,2014-02-02T17:00:00Z,26.2168,-96.4998,1010.66,11111222 
TABS,ioos:station:wmo:42045:1,2014-02-02T17:30:00Z,26.2168,-96.4998,1010.85,11111222 
TABS,ioos:station:wmo:42045:1,2014-02-02T18:00:00Z,26.2168,-96.4998,1010.69,11111222 
TABS,ioos:station:wmo:42045:1,2014-02-02T18:30:00Z,26.2168,-96.4998,1010.59,11111222 
TABS,ioos:station:wmo:42045:1,2014-02-02T19:00:00Z,26.2168,-96.4998,1009.93,11111222 
TABS,ioos:station:wmo:42045:1,2014-02-02T19:30:00Z,26.2168,-96.4998,1009.74,11111222 
TABS,ioos:station:wmo:42045:1,2014-02-02T20:00:00Z,26.2168,-96.4998,1010.09,11111222 
TABS,ioos:station:wmo:42045:1,2014-02-02T20:30:00Z,26.2168,-96.4998,1010.35,11111222 
TABS,ioos:station:wmo:42045:1,2014-02-02T21:00:00Z,26.2168,-96.4998,1010.22,11111222 
TABS,ioos:station:wmo:42045:1,2014-02-02T21:30:00Z,26.2168,-96.4998,1011.06,11111222 
TABS,ioos:station:wmo:42045:1,2014-02-02T22:00:00Z,26.2168,-96.4998,1011.18,11111222 
TABS,ioos:station:wmo:42045:1,2014-02-02T22:30:00Z,26.2168,-96.4998,1011.54,11111222 
TABS,ioos:station:wmo:42045:1,2014-02-02T23:00:00Z,26.2168,-96.4998,1012.17,11111222 
TABS,ioos:station:wmo:42045:1,2014-02-02T23:30:00Z,26.2168,-96.4998,1012.39,11111222 
TABS,ioos:station:wmo:42045:1,2014-02-03T00:00:00Z,26.2168,-96.4998,1013.42,11111222 
TABS,ioos:station:wmo:42045:1,2014-02-03T00:30:00Z,26.2168,-96.4998,1013.91,11111222 
TABS,ioos:station:wmo:42045:1,2014-02-03T01:00:00Z,26.2168,-96.4998,1015.23,11111222 
TABS,ioos:station:wmo:42045:1,2014-02-03T01:30:00Z,26.2168,-96.4998,1014.84,11111222 
TABS,ioos:station:wmo:42045:1,2014-02-03T02:00:00Z,26.2168,-96.4998,1015.42,11111222 
TABS,ioos:station:wmo:42045:1,2014-02-03T02:30:00Z,26.2168,-96.4998,1016.58,11111222 
TABS,ioos:station:wmo:42045:1,2014-02-03T03:00:00Z,26.2168,-96.4998,1017.42,11111222 
TABS,ioos:station:wmo:42045:1,2014-02-03T03:30:00Z,26.2168,-96.4998,1017.44,11111222 
TABS,ioos:station:wmo:42045:1,2014-02-03T04:00:00Z,26.2168,-96.4998,1017.61,11111222 
TABS,ioos:station:wmo:42045:1,2014-02-03T04:30:00Z,26.2168,-96.4998,1017.89,11111222 
TABS,ioos:station:wmo:42045:1,2014-02-03T05:00:00Z,26.2168,-96.4998,1017.75,11111222 
TABS,ioos:station:wmo:42045:1,2014-02-03T05:30:00Z,26.2168,-96.4998,1018.18,11111222 
TABS,ioos:station:wmo:42045:1,2014-02-03T06:00:00Z,26.2168,-96.4998,1018.1,11111222 
TABS,ioos:station:wmo:42045:1,2014-02-03T06:30:00Z,26.2168,-96.4998,1018.49,11111222 
TABS,ioos:station:wmo:42045:1,2014-02-03T07:00:00Z,26.2168,-96.4998,1018.62,11111222 
TABS,ioos:station:wmo:42045:1,2014-02-03T07:30:00Z,26.2168,-96.4998,1018.94,11111222 
TABS,ioos:station:wmo:42045:1,2014-02-03T08:00:00Z,26.2168,-96.4998,1018.74,11111222 
TABS,ioos:station:wmo:42045:1,2014-02-03T08:30:00Z,26.2168,-96.4998,1018.43,11111222 
TABS,ioos:station:wmo:42045:1,2014-02-03T09:00:00Z,26.2168,-96.4998,1019.02,11111222 
TABS,ioos:station:wmo:42045:1,2014-02-03T09:30:00Z,26.2168,-96.4998,1018.59,11111222 
TABS,ioos:station:wmo:42045:1,2014-02-03T10:00:00Z,26.2168,-96.4998,1018.36,11111222 
TABS,ioos:station:wmo:42045:1,2014-02-03T10:30:00Z,26.2168,-96.4998,1018.96,11111222 
TABS,ioos:station:wmo:42045:1,2014-02-03T11:00:00Z,26.2168,-96.4998,1019.11,11111222 
TABS,ioos:station:wmo:42045:1,2014-02-03T11:30:00Z,26.2168,-96.4998,1018.9,11111222 
TABS,ioos:station:wmo:42045:1,2014-02-03T12:00:00Z,26.2168,-96.4998,1019.11,11111222 
TABS,ioos:station:wmo:42045:1,2014-02-03T12:30:00Z,26.2168,-96.4998,1019.07,11111222 
TABS,ioos:station:wmo:42045:1,2014-02-03T13:00:00Z,26.2168,-96.4998,1019.87,11111222 
TABS,ioos:station:wmo:42045:1,2014-02-03T13:30:00Z,26.2168,-96.4998,1020.12,11111222 
TABS,ioos:station:wmo:42045:1,2014-02-03T14:00:00Z,26.2168,-96.4998,1020.49,11111222 
TABS,ioos:station:wmo:42045:1,2014-02-03T14:30:00Z,26.2168,-96.4998,1020.53,11111222 
TABS,ioos:station:wmo:42045:1,2014-02-03T15:00:00Z,26.2168,-96.4998,1020.79,11111222 
TABS,ioos:station:wmo:42045:1,2014-02-03T15:30:00Z,26.2168,-96.4998,1020.91,11111222 
TABS,ioos:station:wmo:42045:1,2014-02-03T16:00:00Z,26.2168,-96.4998,1021.52,11111222 
TABS,ioos:station:wmo:42045:1,2014-02-03T16:30:00Z,26.2168,-96.4998,1020.92,11111222 
TABS,ioos:station:wmo:42045:1,2014-02-03T17:00:00Z,26.2168,-96.4998,1020.81,11111222 
TABS,ioos:station:wmo:42045:1,2014-02-03T17:30:00Z,26.2168,-96.4998,1020.16,11111222 
TABS,ioos:station:wmo:42045:1,2014-02-03T18:00:00Z,26.2168,-96.4998,1018.87,11111222 
TABS,ioos:station:wmo:42045:1,2014-02-03T18:30:00Z,26.2168,-96.4998,1018.44,11111222 
TABS,ioos:station:wmo:42045:1,2014-02-03T19:00:00Z,26.2168,-96.4998,1018.27,11111222 
TABS,ioos:station:wmo:42045:1,2014-02-03T19:30:00Z,26.2168,-96.4998,1017.17,11111222 
TABS,ioos:station:wmo:42045:1,2014-02-03T20:00:00Z,26.2168,-96.4998,1017.13,11111222 
TABS,ioos:station:wmo:42045:1,2014-02-03T20:30:00Z,26.2168,-96.4998,1016.38,11111222 
TABS,ioos:station:wmo:42045:1,2014-02-03T21:00:00Z,26.2168,-96.4998,1015.79,11111222 
TABS,ioos:station:wmo:42045:1,2014-02-03T21:30:00Z,26.2168,-96.4998,1015.82,11111222 
TABS,ioos:station:wmo:42045:1,2014-02-03T22:00:00Z,26.2168,-96.4998,1015.34,11111222 
TABS,ioos:station:wmo:42045:1,2014-02-03T22:30:00Z,26.2168,-96.4998,1015.04,11111222 
TABS,ioos:station:wmo:42045:1,2014-02-03T23:00:00Z,26.2168,-96.4998,1014.82,11111222 
TABS,ioos:station:wmo:42045:1,2014-02-03T23:30:00Z,26.2168,-96.4998,1014.63,11111222 
TABS,ioos:station:wmo:42045:1,2014-02-04T00:00:00Z,26.2168,-96.4998,1014.71,11111222 
TABS,ioos:station:wmo:42045:1,2014-02-04T00:30:00Z,26.2168,-96.4998,1014.79,11111222 
TABS,ioos:station:wmo:42045:1,2014-02-04T01:00:00Z,26.2168,-96.4998,1014.61,11111222 
TABS,ioos:station:wmo:42045:1,2014-02-04T01:30:00Z,26.2168,-96.4998,1014.5,11111222 
TABS,ioos:station:wmo:42045:1,2014-02-04T02:00:00Z,26.2168,-96.4998,1014.71,11111222 
TABS,ioos:station:wmo:42045:1,2014-02-04T02:30:00Z,26.2168,-96.4998,1014.46,11111222 
TABS,ioos:station:wmo:42045:1,2014-02-04T03:00:00Z,26.2168,-96.4998,1014.15,11111222 
TABS,ioos:station:wmo:42045:1,2014-02-04T03:30:00Z,26.2168,-96.4998,1013.85,11111222 
TABS,ioos:station:wmo:42045:1,2014-02-04T04:00:00Z,26.2168,-96.4998,1013.45,11111222 
TABS,ioos:station:wmo:42045:1,2014-02-04T04:30:00Z,26.2168,-96.4998,1013.17,11111222 
TABS,ioos:station:wmo:42045:1,2014-02-04T05:00:00Z,26.2168,-96.4998,1013.0,11111222 
TABS,ioos:station:wmo:42045:1,2014-02-04T05:30:00Z,26.2168,-96.4998,1012.56,11111222 
TABS,ioos:station:wmo:42045:1,2014-02-04T06:00:00Z,26.2168,-96.4998,1011.78,11111222 
TABS,ioos:station:wmo:42045:1,2014-02-04T06:30:00Z,26.2168,-96.4998,1011.58,11111222 
TABS,ioos:station:wmo:42045:1,2014-02-04T07:00:00Z,26.2168,-96.4998,1011.17,11111222 
TABS,ioos:station:wmo:42045:1,2014-02-04T07:30:00Z,26.2168,-96.4998,1011.08,11111222 
TABS,ioos:station:wmo:42045:1,2014-02-04T08:00:00Z,26.2168,-96.4998,1010.44,11111222 
TABS,ioos:station:wmo:42045:1,2014-02-04T08:30:00Z,26.2168,-96.4998,1010.11,11111222 
TABS,ioos:station:wmo:42045:1,2014-02-04T09:00:00Z,26.2168,-96.4998,1009.81,11111222 
TABS,ioos:station:wmo:42045:1,2014-02-04T09:30:00Z,26.2168,-96.4998,1009.65,11111222 
TABS,ioos:station:wmo:42045:1,2014-02-04T10:00:00Z,26.2168,-96.4998,1009.42,11111222 
TABS,ioos:station:wmo:42045:1,2014-02-04T10:30:00Z,26.2168,-96.4998,1009.75,11111222 
TABS,ioos:station:wmo:42045:1,2014-02-04T11:00:00Z,26.2168,-96.4998,1009.63,11111222 
TABS,ioos:station:wmo:42045:1,2014-02-04T11:30:00Z,26.2168,-96.4998,1009.27,11111222 
TABS,ioos:station:wmo:42045:1,2014-02-04T12:00:00Z,26.2168,-96.4998,1009.88,11111222 
TABS,ioos:station:wmo:42045:1,2014-02-04T12:30:00Z,26.2168,-96.4998,1010.11,11111222 
TABS,ioos:station:wmo:42045:1,2014-02-04T13:00:00Z,26.2168,-96.4998,1010.19,11111222 
TABS,ioos:station:wmo:42045:1,2014-02-04T13:30:00Z,26.2168,-96.4998,1010.57,11111222 
TABS,ioos:station:wmo:42045:1,2014-02-04T14:00:00Z,26.2168,-96.4998,1010.88,11111222 
TABS,ioos:station:wmo:42045:1,2014-02-04T14:30:00Z,26.2168,-96.4998,1011.36,11111222 
TABS,ioos:station:wmo:42045:1,2014-02-04T15:00:00Z,26.2168,-96.4998,1011.9,11111222 
TABS,ioos:station:wmo:42045:1,2014-02-04T15:30:00Z,26.2168,-96.4998,1012.16,11111222 
TABS,ioos:station:wmo:42045:1,2014-02-04T16:00:00Z,26.2168,-96.4998,1012.42,11111222 
TABS,ioos:station:wmo:42045:1,2014-02-04T16:30:00Z,26.2168,-96.4998,1012.29,11111222 
TABS,ioos:station:wmo:42045:1,2014-02-04T17:00:00Z,26.2168,-96.4998,1012.22,11111222 
TABS,ioos:station:wmo:42045:1,2014-02-04T17:30:00Z,26.2168,-96.4998,1011.71,11111222 
TABS,ioos:station:wmo:42045:1,2014-02-04T18:00:00Z,26.2168,-96.4998,1011.94,11111222 
TABS,ioos:station:wmo:42045:1,2014-02-04T18:30:00Z,26.2168,-96.4998,1011.62,11111222 
TABS,ioos:station:wmo:42045:1,2014-02-04T19:00:00Z,26.2168,-96.4998,1011.66,11111222 
TABS,ioos:station:wmo:42045:1,2014-02-04T19:30:00Z,26.2168,-96.4998,1011.63,11111222 
TABS,ioos:station:wmo:42045:1,2014-02-04T20:00:00Z,26.2168,-96.4998,1010.9,11111222 
TABS,ioos:station:wmo:42045:1,2014-02-04T20:30:00Z,26.2168,-96.4998,1011.41,11111222 
TABS,ioos:station:wmo:42045:1,2014-02-04T21:00:00Z,26.2168,-96.4998,1010.94,11111222 
TABS,ioos:station:wmo:42045:1,2014-02-04T21:30:00Z,26.2168,-96.4998,1011.13,11111222 
TABS,ioos:station:wmo:42045:1,2014-02-04T22:00:00Z,26.2168,-96.4998,1011.68,11111222 
TABS,ioos:station:wmo:42045:1,2014-02-04T22:30:00Z,26.2168,-96.4998,1011.6,11111222 
TABS,ioos:station:wmo:42045:1,2014-02-04T23:00:00Z,26.2168,-96.4998,1011.87,11111222 
TABS,ioos:station:wmo:42045:1,2014-02-04T23:30:00Z,26.2168,-96.4998,1012.17,11111222 
TABS,ioos:station:wmo:42045:1,2014-02-05T00:00:00Z,26.2168,-96.4998,1012.33,11111222 
TABS,ioos:station:wmo:42045:1,2014-02-05T00:30:00Z,26.2168,-96.4998,1012.99,11111222 
TABS,ioos:station:wmo:42045:1,2014-02-05T01:00:00Z,26.2168,-96.4998,1013.03,11111222 
TABS,ioos:station:wmo:42045:1,2014-02-05T01:30:00Z,26.2168,-96.4998,1013.45,11111222 
TABS,ioos:station:wmo:42045:1,2014-02-05T02:00:00Z,26.2168,-96.4998,1014.02,11111222 
TABS,ioos:station:wmo:42045:1,2014-02-05T02:30:00Z,26.2168,-96.4998,1014.35,11111222 
TABS,ioos:station:wmo:42045:1,2014-02-05T03:00:00Z,26.2168,-96.4998,1014.75,11111222 
TABS,ioos:station:wmo:42045:1,2014-02-05T03:30:00Z,26.2168,-96.4998,1015.46,11111222 
TABS,ioos:station:wmo:42045:1,2014-02-05T04:00:00Z,26.2168,-96.4998,1015.64,11111222 
TABS,ioos:station:wmo:42045:1,2014-02-05T04:30:00Z,26.2168,-96.4998,1016.04,11111222 
TABS,ioos:station:wmo:42045:1,2014-02-05T05:00:00Z,26.2168,-96.4998,1016.33,11111222 
TABS,ioos:station:wmo:42045:1,2014-02-05T05:30:00Z,26.2168,-96.4998,1016.4,11111222 
TABS,ioos:station:wmo:42045:1,2014-02-05T06:00:00Z,26.2168,-96.4998,1016.43,11111222 
TABS,ioos:station:wmo:42045:1,2014-02-05T06:30:00Z,26.2168,-96.4998,1016.36,11111222 
TABS,ioos:station:wmo:42045:1,2014-02-05T07:00:00Z,26.2168,-96.4998,1016.6,11111222 
TABS,ioos:station:wmo:42045:1,2014-02-05T07:30:00Z,26.2168,-96.4998,1016.64,11111222 
TABS,ioos:station:wmo:42045:1,2014-02-05T08:00:00Z,26.2168,-96.4998,1016.69,11111222 
TABS,ioos:station:wmo:42045:1,2014-02-05T08:30:00Z,26.2168,-96.4998,1016.83,11111222 
TABS,ioos:station:wmo:42045:1,2014-02-05T09:00:00Z,26.2168,-96.4998,1016.6,11111222 
TABS,ioos:station:wmo:42045:1,2014-02-05T09:30:00Z,26.2168,-96.4998,1016.84,11111222 
TABS,ioos:station:wmo:42045:1,2014-02-05T10:00:00Z,26.2168,-96.4998,1017.25,11111222 
TABS,ioos:station:wmo:42045:1,2014-02-05T10:30:00Z,26.2168,-96.4998,1017.51,11111222 
TABS,ioos:station:wmo:42045:1,2014-02-05T11:00:00Z,26.2168,-96.4998,1017.96,11111222 
TABS,ioos:station:wmo:42045:1,2014-02-05T11:30:00Z,26.2168,-96.4998,1018.28,11111222 
TABS,ioos:station:wmo:42045:1,2014-02-05T12:00:00Z,26.2168,-96.4998,1018.91,11111222 
TABS,ioos:station:wmo:42045:1,2014-02-05T12:30:00Z,26.2168,-96.4998,1019.54,11111222 
TABS,ioos:station:wmo:42045:1,2014-02-05T13:00:00Z,26.2168,-96.4998,1019.87,11111222 
TABS,ioos:station:wmo:42045:1,2014-02-05T13:30:00Z,26.2168,-96.4998,1020.06,11111222 
TABS,ioos:station:wmo:42045:1,2014-02-05T14:00:00Z,26.2168,-96.4998,1020.42,11111222 
TABS,ioos:station:wmo:42045:1,2014-02-05T14:30:00Z,26.2168,-96.4998,1021.02,11111222 
TABS,ioos:station:wmo:42045:1,2014-02-05T15:00:00Z,26.2168,-96.4998,1021.06,11111222 
TABS,ioos:station:wmo:42045:1,2014-02-05T15:30:00Z,26.2168,-96.4998,1021.92,11111222 
TABS,ioos:station:wmo:42045:1,2014-02-05T16:00:00Z,26.2168,-96.4998,1021.77,11111222 
TABS,ioos:station:wmo:42045:1,2014-02-05T16:30:00Z,26.2168,-96.4998,1021.8,11111222 
TABS,ioos:station:wmo:42045:1,2014-02-05T17:00:00Z,26.2168,-96.4998,1022.08,11111222 
TABS,ioos:station:wmo:42045:1,2014-02-05T17:30:00Z,26.2168,-96.4998,1022.19,11111222 
TABS,ioos:station:wmo:42045:1,2014-02-05T18:00:00Z,26.2168,-96.4998,1021.69,11111222 
TABS,ioos:station:wmo:42045:1,2014-02-05T18:30:00Z,26.2168,-96.4998,1021.81,11111222 
TABS,ioos:station:wmo:42045:1,2014-02-05T19:00:00Z,26.2168,-96.4998,1021.06,11111222 
TABS,ioos:station:wmo:42045:1,2014-02-05T19:30:00Z,26.2168,-96.4998,1021.14,11111222 
TABS,ioos:station:wmo:42045:1,2014-02-05T20:00:00Z,26.2168,-96.4998,1021.22,11111222 
TABS,ioos:station:wmo:42045:1,2014-02-05T20:30:00Z,26.2168,-96.4998,1020.94,11111222 
TABS,ioos:station:wmo:42045:1,2014-02-05T21:00:00Z,26.2168,-96.4998,1020.59,11111222 
TABS,ioos:station:wmo:42045:1,2014-02-05T21:30:00Z,26.2168,-96.4998,1020.84,11111222 
TABS,ioos:station:wmo:42045:1,2014-02-05T22:00:00Z,26.2168,-96.4998,1021.24,11111222 
TABS,ioos:station:wmo:42045:1,2014-02-05T22:30:00Z,26.2168,-96.4998,1021.26,11111222 
TABS,ioos:station:wmo:42045:1,2014-02-05T23:00:00Z,26.2168,-96.4998,1021.26,11111222 
TABS,ioos:station:wmo:42045:1,2014-02-05T23:30:00Z,26.2168,-96.4998,1021.41,11111222 
TABS,ioos:station:wmo:42045:1,2014-02-06T00:00:00Z,26.2168,-96.4998,1021.94,11111222 
TABS,ioos:station:wmo:42045:1,2014-02-06T00:30:00Z,26.2168,-96.4998,1022.44,11111222 
TABS,ioos:station:wmo:42045:1,2014-02-06T01:00:00Z,26.2168,-96.4998,1022.51,11111222 
TABS,ioos:station:wmo:42045:1,2014-02-06T01:30:00Z,26.2168,-96.4998,1023.37,11111222 
TABS,ioos:station:wmo:42045:1,2014-02-06T02:00:00Z,26.2168,-96.4998,1022.79,11111222 
TABS,ioos:station:wmo:42045:1,2014-02-06T02:30:00Z,26.2168,-96.4998,1022.81,11111222 
TABS,ioos:station:wmo:42045:1,2014-02-06T03:00:00Z,26.2168,-96.4998,1023.11,11111222 
TABS,ioos:station:wmo:42045:1,2014-02-06T03:30:00Z,26.2168,-96.4998,1022.91,11111222 
TABS,ioos:station:wmo:42045:1,2014-02-06T04:00:00Z,26.2168,-96.4998,1023.15,11111222 
TABS,ioos:station:wmo:42045:1,2014-02-06T04:30:00Z,26.2168,-96.4998,1022.99,11111222 
TABS,ioos:station:wmo:42045:1,2014-02-06T05:00:00Z,26.2168,-96.4998,1022.66,11111222 
TABS,ioos:station:wmo:42045:1,2014-02-06T05:30:00Z,26.2168,-96.4998,1022.79,11111222 
TABS,ioos:station:wmo:42045:1,2014-02-06T06:00:00Z,26.2168,-96.4998,1022.74,11111222 
TABS,ioos:station:wmo:42045:1,2014-02-06T06:30:00Z,26.2168,-96.4998,1021.97,11111222 
TABS,ioos:station:wmo:42045:1,2014-02-06T07:00:00Z,26.2168,-96.4998,1022.14,11111222 
TABS,ioos:station:wmo:42045:1,2014-02-06T07:30:00Z,26.2168,-96.4998,1022.31,11111222 
TABS,ioos:station:wmo:42045:1,2014-02-06T08:00:00Z,26.2168,-96.4998,1021.84,11111222 
TABS,ioos:station:wmo:42045:1,2014-02-06T08:30:00Z,26.2168,-96.4998,1021.82,11111222 
TABS,ioos:station:wmo:42045:1,2014-02-06T09:00:00Z,26.2168,-96.4998,1021.55,11111222 
TABS,ioos:station:wmo:42045:1,2014-02-06T09:30:00Z,26.2168,-96.4998,1021.1,11111222 
TABS,ioos:station:wmo:42045:1,2014-02-06T10:00:00Z,26.2168,-96.4998,1021.28,11111222 
TABS,ioos:station:wmo:42045:1,2014-02-06T10:30:00Z,26.2168,-96.4998,1021.53,11111222 
TABS,ioos:station:wmo:42045:1,2014-02-06T11:00:00Z,26.2168,-96.4998,1021.56,11111222 
TABS,ioos:station:wmo:42045:1,2014-02-06T11:30:00Z,26.2168,-96.4998,1021.76,11111222 
TABS,ioos:station:wmo:42045:1,2014-02-06T12:00:00Z,26.2168,-96.4998,1021.98,11111222 
TABS,ioos:station:wmo:42045:1,2014-02-06T12:30:00Z,26.2168,-96.4998,1022.72,11111222 
TABS,ioos:station:wmo:42045:1,2014-02-06T13:00:00Z,26.2168,-96.4998,1022.7,11111222 
TABS,ioos:station:wmo:42045:1,2014-02-06T13:30:00Z,26.2168,-96.4998,1023.19,11111222 
TABS,ioos:station:wmo:42045:1,2014-02-06T14:00:00Z,26.2168,-96.4998,1024.12,11111222 
TABS,ioos:station:wmo:42045:1,2014-02-06T14:30:00Z,26.2168,-96.4998,1024.72,11111222 
TABS,ioos:station:wmo:42045:1,2014-02-06T15:00:00Z,26.2168,-96.4998,1024.68,11111222 
TABS,ioos:station:wmo:42045:1,2014-02-06T15:30:00Z,26.2168,-96.4998,1024.5,11111222 
TABS,ioos:station:wmo:42045:1,2014-02-06T16:00:00Z,26.2168,-96.4998,1024.91,11111222 
TABS,ioos:station:wmo:42045:1,2014-02-06T16:30:00Z,26.2168,-96.4998,1025.71,11111222 
TABS,ioos:station:wmo:42045:1,2014-02-06T17:00:00Z,26.2168,-96.4998,1024.61,11111222 
TABS,ioos:station:wmo:42045:1,2014-02-06T17:30:00Z,26.2168,-96.4998,1024.73,11111222 
TABS,ioos:station:wmo:42045:1,2014-02-06T18:00:00Z,26.2168,-96.4998,1024.47,11111222 
TABS,ioos:station:wmo:42045:1,2014-02-06T18:30:00Z,26.2168,-96.4998,1024.1,11111222 